CW7972 Weather Reports


Display with metric or nautical units.
time (UTC)temp
F
wind
direction
speed
MPH
gust
MPH
rain 1hr
in
rain 24hr
in
rain mn
in
humidity
%
barometer
mb
20260505035504 63 264 4.0 9.0 0.00 0.00 0.00 60 1032.8
20260505035004 64 262 4.0 9.0 0.00 0.00 0.00 60 1032.8
20260505034504 64 266 4.0 9.0 0.00 0.00 0.00 59 1032.8
20260505034004 66 270 4.0 9.0 0.00 0.00 0.00 58 1032.8
20260505033504 65 261 4.0 9.0 0.00 0.00 0.00 59 1032.8
20260505033004 65 259 4.0 9.0 0.00 0.00 0.00 59 1032.8
20260505032505 65 266 4.0 8.0 0.00 0.00 0.00 58 1032.8
20260505032004 66 274 3.0 8.0 0.00 0.00 0.00 58 1032.9
20260505031504 66 271 4.0 13.0 0.00 0.00 0.00 58 1032.9
20260505031218 65 273 4.0 13.0 0.00 0.00 0.00 60 1032.8
20260505030504 65 276 4.0 8.0 0.00 0.00 0.00 60 1032.8
20260505030004 64 273 4.0 8.0 0.00 0.00 0.00 61 1032.8
20260505025505 63 270 4.0 8.0 0.00 0.00 0.00 62 1032.8
20260505025004 63 270 4.0 8.0 0.00 0.00 0.00 63 1032.8
20260505024504 62 271 4.0 10.0 0.00 0.00 0.00 63 1032.8
20260505024004 62 274 4.0 10.0 0.00 0.00 0.00 65 1032.9
20260505023719 62 272 4.0 10.0 0.00 0.00 0.00 64 1032.9
20260505023004 61 281 4.0 9.0 0.00 0.00 0.00 64 1032.9
20260505022504 62 275 4.0 9.0 0.00 0.00 0.00 63 1033.0
20260505022004 62 267 4.0 11.0 0.00 0.00 0.00 63 1033.0
20260505021504 62 274 4.0 11.0 0.00 0.00 0.00 64 1033.0
20260505021004 62 270 4.0 10.0 0.00 0.00 0.00 63 1033.0
20260505020504 62 269 4.0 10.0 0.00 0.00 0.00 64 1033.1
20260505020218 61 277 4.0 9.0 0.00 0.00 0.00 65 1033.1
20260505015504 61 276 4.0 11.0 0.00 0.00 0.00 65 1033.2
20260505015218 61 274 5.0 11.0 0.00 0.00 0.00 65 1033.2
20260505014719 61 271 4.0 11.0 0.00 0.00 0.00 64 1033.2
20260505014004 61 266 4.0 11.0 0.00 0.00 0.00 65 1033.3
20260505013504 61 268 4.0 10.0 0.00 0.00 0.00 65 1033.4
20260505013004 61 273 3.0 10.0 0.00 0.00 0.00 66 1033.5
20260505012504 61 269 4.0 12.0 0.00 0.00 0.00 65 1033.5
20260505012005 61 269 4.0 12.0 0.00 0.00 0.00 65 1033.6
20260505011719 61 268 4.0 12.0 0.00 0.00 0.00 65 1033.7
20260505011004 61 269 5.0 9.0 0.00 0.00 0.00 65 1033.8
20260505010504 60 273 4.0 9.0 0.00 0.00 0.00 66 1033.9
20260505010004 60 280 4.0 9.0 0.00 0.00 0.00 66 1033.9
20260505005718 60 281 3.0 9.0 0.00 0.00 0.00 67 1034.0
20260505005004 60 266 4.0 9.0 0.00 0.00 0.00 67 1034.1
20260505004504 60 270 4.0 10.0 0.00 0.00 0.00 66 1034.2
20260505004217 60 274 3.0 10.0 0.00 0.00 0.00 67 1034.3
20260505003504 59 281 3.0 10.0 0.00 0.00 0.00 67 1034.4
20260505003004 60 279 4.0 11.0 0.00 0.00 0.00 66 1034.5
20260505002504 60 273 4.0 12.0 0.00 0.00 0.00 66 1034.6
20260505002004 59 273 4.0 12.0 0.00 0.00 0.00 66 1034.6
20260505001504 59 274 4.0 11.0 0.00 0.00 0.00 66 1034.7
20260505001004 59 271 4.0 11.0 0.00 0.00 0.00 65 1034.8
20260505000504 59 270 4.0 9.0 0.00 0.00 0.00 65 1034.9
20260505000004 60 275 4.0 9.0 0.00 0.00 0.00 66 1035.0
20260504235504 59 269 4.0 12.0 0.00 0.00 0.00 66 1035.1
20260504235219 59 268 4.0 12.0 0.00 0.00 0.00 66 1035.1
20260504234504 59 275 4.0 10.0 0.00 0.00 0.00 66 1035.3
20260504234004 59 275 4.0 9.0 0.00 0.00 0.00 66 1035.4
20260504233504 59 275 4.0 11.0 0.00 0.00 0.00 65 1035.4
20260504233004 60 271 5.0 11.0 0.00 0.00 0.00 66 1035.5
20260504232718 59 269 5.0 12.0 0.00 0.00 0.00 67 1035.5
20260504232004 59 272 4.0 12.0 0.00 0.00 0.00 66 1035.5
20260504231718 59 271 4.0 10.0 0.00 0.00 0.00 66 1035.5
20260504231004 59 265 4.0 9.0 0.00 0.00 0.00 67 1035.6
20260504230718 59 267 3.0 8.0 0.00 0.00 0.00 68 1035.6
20260504230004 59 272 2.0 7.0 0.00 0.00 0.00 69 1035.6
20260504225504 59 277 2.0 7.0 0.00 0.00 0.00 69 1035.6
20260504225004 59 283 2.0 8.0 0.00 0.00 0.00 70 1035.5
20260504224504 59 313 2.0 8.0 0.00 0.00 0.00 70 1035.5
20260504224004 58 328 1.0 5.0 0.00 0.00 0.00 71 1035.5
20260504223505 58 313 1.0 4.0 0.00 0.00 0.00 71 1035.5
20260504223004 58 317 1.0 5.0 0.00 0.00 0.00 72 1035.5
20260504222504 58 318 1.0 5.0 0.00 0.00 0.00 72 1035.5
20260504222004 57 327 1.0 7.0 0.00 0.00 0.00 72 1035.5
20260504221504 57 322 2.0 9.0 0.00 0.00 0.00 73 1035.5
20260504221003 57 319 2.0 9.0 0.00 0.00 0.00 72 1035.5
20260504220504 57 315 2.0 9.0 0.00 0.00 0.00 73 1035.6
20260504220004 57 309 2.0 8.0 0.00 0.00 0.00 74 1035.6
20260504215504 56 342 1.0 5.0 0.00 0.00 0.00 74 1035.6
20260504215004 56 354 2.0 7.0 0.00 0.00 0.00 74 1035.6
20260504214504 56 331 2.0 7.0 0.00 0.00 0.00 75 1035.6
20260504214004 55 312 2.0 7.0 0.00 0.00 0.00 75 1035.6
20260504213504 55 343 2.0 7.0 0.00 0.00 0.00 75 1035.7
20260504213004 55 4 2.0 6.0 0.00 0.00 0.00 76 1035.7
20260504212504 55 351 2.0 6.0 0.00 0.00 0.00 76 1035.8
20260504212004 55 333 2.0 7.0 0.00 0.00 0.00 76 1035.8
20260504211719 55 336 2.0 7.0 0.00 0.00 0.00 76 1035.8
20260504211218 54 340 2.0 7.0 0.00 0.00 0.00 76 1035.9
20260504210504 54 342 2.0 7.0 0.00 0.00 0.00 77 1035.9
20260504210004 54 341 2.0 7.0 0.00 0.00 0.00 77 1035.9
20260504205719 54 332 2.0 7.0 0.00 0.00 0.00 78 1035.9
20260504205004 54 306 1.0 5.0 0.00 0.00 0.00 79 1035.9
20260504204719 54 321 1.0 4.0 0.00 0.00 0.00 79 1036.0
20260504204004 54 327 1.0 3.0 0.00 0.00 0.00 80 1035.9
20260504203504 53 326 0.0 3.0 0.00 0.00 0.00 80 1035.9
20260504203004 53 309 0.0 2.0 0.00 0.00 0.00 80 1035.9
20260504202504 53 321 0.0 2.0 0.00 0.00 0.00 80 1035.9
20260504202004 53 324 0.0 2.0 0.00 0.00 0.00 81 1035.9
20260504201504 53 0 0.0 2.0 0.00 0.00 0.00 81 1035.9
20260504201218 53 0 0.0 1.0 0.00 0.00 0.00 80 1035.9
20260504200719 52 0 0.0 1.0 0.00 0.00 0.00 80 1035.8
20260504200004 52 0 0.0 1.0 0.00 0.00 0.00 80 1035.8
20260504195504 52 0 0.0 1.0 0.00 0.00 0.00 80 1035.8
20260504195005 52 0 0.0 1.0 0.00 0.00 0.00 80 1035.7
20260504194718 52 0 0.0 0.0 0.00 0.00 0.00 80 1035.7
20260504194004 52 0 0.0 0.0 0.00 0.00 0.00 80 1035.6
20260504193505 51 0 0.0 0.0 0.00 0.00 0.00 80 1035.6
20260504193004 51 0 0.0 0.0 0.00 0.00 0.00 80 1035.6
20260504192504 51 0 0.0 0.0 0.00 0.00 0.00 80 1035.6
20260504192004 51 0 0.0 0.0 0.00 0.00 0.00 79 1035.5
20260504191504 51 0 0.0 0.0 0.00 0.00 0.00 78 1035.5
20260504191004 51 0 0.0 1.0 0.00 0.00 0.00 77 1035.5
20260504190504 52 272 0.0 3.0 0.00 0.00 0.00 77 1035.4
20260504190004 52 267 1.0 3.0 0.00 0.00 0.00 77 1035.4
20260504185504 52 267 1.0 2.0 0.00 0.00 0.00 76 1035.4
20260504185004 53 266 1.0 3.0 0.00 0.00 0.00 75 1035.5
20260504184504 53 262 1.0 3.0 0.00 0.00 0.00 74 1035.5
20260504184219 53 260 1.0 3.0 0.00 0.00 0.00 74 1035.5
20260504183504 54 268 1.0 3.0 0.00 0.00 0.00 74 1035.5
20260504183219 54 269 1.0 6.0 0.00 0.00 0.00 73 1035.5
20260504182718 54 265 2.0 6.0 0.00 0.00 0.00 73 1035.5
20260504182004 54 255 2.0 5.0 0.00 0.00 0.00 72 1035.6
20260504181504 54 263 2.0 4.0 0.00 0.00 0.00 72 1035.6
20260504181004 54 268 3.0 5.0 0.00 0.00 0.00 72 1035.6
20260504180718 54 265 3.0 5.0 0.00 0.00 0.00 72 1035.6
20260504180004 54 259 3.0 5.0 0.00 0.00 0.00 72 1035.6
20260504175504 54 264 2.0 5.0 0.00 0.00 0.00 72 1035.6
20260504175004 54 264 2.0 4.0 0.00 0.00 0.00 73 1035.6
20260504174504 54 256 2.0 5.0 0.00 0.00 0.00 74 1035.6
20260504174004 54 258 3.0 7.0 0.00 0.00 0.00 75 1035.7
20260504173504 54 267 2.0 7.0 0.00 0.00 0.00 77 1035.7
20260504173004 54 270 2.0 5.0 0.00 0.00 0.00 77 1035.6
20260504172718 54 270 3.0 5.0 0.00 0.00 0.00 77 1035.6
20260504172005 54 277 2.0 5.0 0.00 0.00 0.00 77 1035.6
20260504171504 54 280 2.0 5.0 0.00 0.00 0.00 78 1035.6
20260504171004 54 280 2.0 4.0 0.00 0.00 0.00 78 1035.6
20260504170505 54 274 1.0 4.0 0.00 0.00 0.00 77 1035.6
20260504151004 54 269 1.0 3.0 0.00 0.00 0.00 75 1036.0
20260504150505 54 282 0.0 2.0 0.00 0.00 0.00 76 1036.0
20260504150218 54 276 0.0 3.0 0.00 0.00 0.00 75 1036.1
20260504141004 54 306 1.0 6.0 0.00 0.00 0.00 75 1036.3
20260504140504 54 308 1.0 7.0 0.00 0.00 0.00 75 1036.3
20260504130504 54 304 1.0 4.0 0.00 0.00 0.00 76 1036.4
20260504110504 54 319 0.0 4.0 0.00 0.00 0.00 79 1036.4
20260504100504 54 328 1.0 6.0 0.00 0.00 0.00 79 1036.4
20260504082004 53 323 0.0 2.0 0.00 0.00 0.00 79 1036.0
20260504081504 53 348 0.0 2.0 0.00 0.00 0.00 79 1036.0
20260504081219 53 345 0.0 2.0 0.00 0.00 0.00 78 1036.0
20260504080504 53 331 0.0 2.0 0.00 0.00 0.00 78 1035.9
20260504060218 56 287 1.0 4.0 0.00 0.00 0.00 74 1035.2
20260504050504 57 286 2.0 5.0 0.00 0.00 0.00 73 1035.1
20260504050004 57 276 3.0 6.0 0.00 0.00 0.00 72 1035.1
20260504045719 57 272 3.0 6.0 0.00 0.00 0.00 72 1035.1
20260504045218 57 275 2.0 9.0 0.00 0.00 0.00 71 1035.1
20260504044504 57 272 3.0 9.0 0.00 0.00 0.00 72 1035.1
20260504044004 57 274 4.0 8.0 0.00 0.00 0.00 71 1035.1
20260504043504 58 270 4.0 10.0 0.00 0.00 0.00 71 1035.0
20260504043220 58 269 3.0 10.0 0.00 0.00 0.00 71 1035.0
20260504042504 58 258 3.0 6.0 0.00 0.00 0.00 72 1035.0
20260504042004 58 261 3.0 10.0 0.00 0.00 0.00 71 1034.9
20260504041504 58 279 4.0 10.0 0.00 0.00 0.00 71 1034.9
20260504041004 58 286 3.0 7.0 0.00 0.00 0.00 71 1034.9
20260504040505 58 278 3.0 6.0 0.00 0.00 0.00 70 1034.9
20260504040004 58 269 3.0 8.0 0.00 0.00 0.00 70 1034.9